Chicago Executive, IL

1:48 PM CDT on March 28, 2017 (GMT -0500)
Chicago Executive

Weather History for KPWK - April, 2013

Change the Weather History Date:

Saturday, April 27, 2013

  Actual Average Record
Temperature  
Mean Temperature 56 °F 52 °F  
Max Temperature 67 °F 62 °F 75 °F (2003)
Min Temperature 44 °F 41 °F 35 °F (2004)
Degree Days  
Heating Degree Days 9 13  
Month to date heating degree days 547 483  
Since 1 July heating degree days 6079 6074  
Cooling Degree Days 0 0  
Month to date cooling degree days 0 0  
Year to date cooling degree days 0 0  
Growing Degree Days 6 (Base 50)    
Moisture  
Dew Point 42 °F    
Average Humidity 60    
Maximum Humidity 90    
Minimum Humidity 37    
Precipitation  
Precipitation 0.00 in 0.15 in 1.08 in (1999)
Month to date precipitation 0.67 2.48  
Year to date precipitation 6.45 7.31  
Sea Level Pressure  
Sea Level Pressure 30.19 in    
Wind  
Wind Speed 6 mph (SE)    
Max Wind Speed 14 mph    
Max Gust Speed 23 mph    
Visibility 10 miles    
Events      
T = Trace of Precipitation, MM = Missing Value Source: NWS Daily Summary

Daily Weather History Graph

Daily Weather History Graph

Search for Another Location

Airport or City:

Trip Planner

Search our weather history database for the weather conditions in past years. The results will help you decide how hot, cold, wet, or windy it might be!

Date:

Astronomy

Apr. 27, 2013 Rise Set
Actual Time 5:52 AM CDT 7:46 PM CDT
Civil Twilight 5:22 AM CDT 8:16 PM CDT
Nautical Twilight 4:45 AM CDT 8:53 PM CDT
Astronomical Twilight 4:06 AM CDT 9:33 PM CDT
Moon 10:17 PM CDT (4/27) 7:09 AM CDT (4/27)
Length of Visible Light 14h 54m
Length of Day
13h 54m
Waning Gibbous, 95% of the Moon is Illuminated
Apr 27
Waning Gibbous
May 2
Last Quarter
May 9
New
May 17
First Quarter
May 24
Full

Hourly Weather History & Observations

Time (CDT) Temp. Windchill Dew Point Humidity Pressure Visibility Wind Dir Wind Speed Gust Speed Precip Events Conditions
12:52 AM 54.0 °F - 44.1 °F 69% 30.31 in 10.0 mi SSW 4.6 mph - N/A   Unknown
1:52 AM 52.0 °F - 44.1 °F 74% 30.30 in 10.0 mi SSW 4.6 mph - N/A   Unknown
2:52 AM 48.0 °F - 42.1 °F 80% 30.29 in 10.0 mi South 4.6 mph - N/A   Unknown
3:52 AM 46.0 °F 43.9 °F 41.0 °F 83% 30.29 in 10.0 mi South 4.6 mph - N/A   Unknown
4:52 AM 46.0 °F - 42.1 °F 86% 30.27 in 8.0 mi Calm Calm - N/A   Unknown
5:52 AM 45.0 °F 43.5 °F 42.1 °F 90% 30.28 in 7.0 mi SSE 3.5 mph - N/A   Unknown
6:52 AM 46.9 °F - 44.1 °F 90% 30.28 in 5.0 mi Calm Calm - N/A   Mist
7:52 AM 52.0 °F - 45.0 °F 77% 30.28 in 8.0 mi South 3.5 mph - N/A   Clear
8:52 AM 55.9 °F - 45.0 °F 67% 30.26 in 9.0 mi South 3.5 mph - N/A   Clear
9:52 AM 57.9 °F - 45.0 °F 62% 30.24 in 10.0 mi SSE 9.2 mph - N/A   Clear
10:52 AM 62.1 °F - 43.0 °F 50% 30.23 in 10.0 mi South 4.6 mph - N/A   Clear
11:52 AM 64.0 °F - 42.1 °F 45% 30.22 in 10.0 mi SSE 9.2 mph 17.3 mph N/A   Clear
12:52 PM 64.9 °F - 42.1 °F 43% 30.21 in 10.0 mi SE 9.2 mph - N/A   Clear
1:52 PM 66.0 °F - 43.0 °F 43% 30.18 in 10.0 mi SSE 13.8 mph 23.0 mph N/A   Partly Cloudy
2:52 PM 66.0 °F - 41.0 °F 40% 30.15 in 10.0 mi East 11.5 mph - N/A   Partly Cloudy
3:52 PM 66.0 °F - 41.0 °F 40% 30.13 in 10.0 mi East 10.4 mph - N/A   Partly Cloudy
4:52 PM 64.9 °F - 37.9 °F 37% 30.11 in 10.0 mi East 8.1 mph - N/A   Scattered Clouds
5:52 PM 64.0 °F - 39.0 °F 40% 30.10 in 10.0 mi ENE 8.1 mph - N/A   Clear
6:52 PM 62.1 °F - 39.0 °F 43% 30.09 in 10.0 mi East 6.9 mph - N/A   Partly Cloudy
7:52 PM 59.0 °F - 39.0 °F 48% 30.08 in 10.0 mi East 4.6 mph - N/A   Mostly Cloudy
8:52 PM 57.0 °F - 39.9 °F 53% 30.08 in 10.0 mi Variable 4.6 mph - N/A   Overcast
9:52 PM 55.0 °F - 41.0 °F 59% 30.07 in 10.0 mi East 4.6 mph - N/A   Unknown
10:52 PM 54.0 °F - 41.0 °F 62% 30.05 in 10.0 mi ENE 3.5 mph - N/A   Unknown
11:52 PM 53.1 °F - 39.9 °F 61% 30.03 in 10.0 mi East 3.5 mph - N/A   Unknown